TimeCDT,TemperatureF,Dew PointF,Humidity,Sea Level PressureIn,VisibilityMPH,Wind Direction,Wind SpeedMPH,Gust SpeedMPH,PrecipitationIn,Events,Conditions,WindDirDegrees,DateUTC
12:15 AM,67.1,62.2,84,29.94,10.0,SSE,18.4,-,N/A,,Clear,150,2013-06-20 05:15:00
12:35 AM,66.4,62.6,88,29.94,10.0,SSE,17.3,23.0,N/A,,Clear,150,2013-06-20 05:35:00
12:55 AM,66.2,62.6,88,29.95,10.0,SE,11.5,-,N/A,,Clear,130,2013-06-20 05:55:00
1:15 AM,65.3,62.2,90,29.95,10.0,SSE,12.7,-,N/A,,Clear,150,2013-06-20 06:15:00
1:35 AM,64.9,62.2,91,29.94,10.0,SE,12.7,-,N/A,,Clear,140,2013-06-20 06:35:00
1:55 AM,64.8,62.1,91,29.94,10.0,SSE,12.7,-,N/A,,Clear,150,2013-06-20 06:55:00
2:15 AM,64.9,62.2,91,29.94,10.0,South,15.0,-,N/A,,Clear,170,2013-06-20 07:15:00
2:35 AM,64.8,62.6,93,29.95,7.0,SE,12.7,-,N/A,,Scattered Clouds,140,2013-06-20 07:35:00
2:55 AM,64.8,62.8,93,29.94,7.0,SSE,13.8,-,N/A,,Mostly Cloudy,160,2013-06-20 07:55:00
3:15 AM,64.9,63.0,93,29.92,5.0,South,16.1,21.9,N/A,,Overcast,170,2013-06-20 08:15:00
3:35 AM,65.3,63.1,93,29.92,5.0,South,13.8,18.4,N/A,,Overcast,170,2013-06-20 08:35:00
3:55 AM,64.9,63.1,94,29.92,5.0,SSE,11.5,-,N/A,,Overcast,160,2013-06-20 08:55:00
4:15 AM,64.9,63.3,94,29.93,5.0,South,10.4,-,N/A,,Overcast,170,2013-06-20 09:15:00
4:35 AM,64.9,63.5,95,29.92,4.0,South,13.8,-,N/A,,Overcast,170,2013-06-20 09:35:00
4:55 AM,64.8,63.1,94,29.92,5.0,South,8.1,-,N/A,,Mostly Cloudy,170,2013-06-20 09:55:00
5:15 AM,64.4,62.8,94,29.92,4.0,South,11.5,-,N/A,,Mostly Cloudy,170,2013-06-20 10:15:00
5:35 AM,64.4,62.6,94,29.93,5.0,South,10.4,-,N/A,,Scattered Clouds,180,2013-06-20 10:35:00
5:55 AM,64.0,62.4,94,29.94,5.0,South,6.9,-,N/A,,Clear,180,2013-06-20 10:55:00
6:15 AM,63.5,61.9,94,29.96,5.0,South,4.6,-,N/A,,Clear,170,2013-06-20 11:15:00
6:35 AM,63.1,61.5,94,29.96,5.0,South,6.9,-,N/A,,Clear,170,2013-06-20 11:35:00
6:55 AM,63.5,61.7,94,29.96,5.0,South,5.8,-,N/A,,Clear,170,2013-06-20 11:55:00
7:15 AM,64.0,62.2,94,29.97,7.0,SSE,5.8,-,N/A,,Clear,160,2013-06-20 12:15:00
7:35 AM,65.1,62.8,92,29.97,7.0,SSE,9.2,-,N/A,,Clear,160,2013-06-20 12:35:00
7:55 AM,66.4,63.3,90,29.97,10.0,South,10.4,-,N/A,,Clear,170,2013-06-20 12:55:00
8:15 AM,67.5,63.3,87,29.97,10.0,South,11.5,-,N/A,,Clear,170,2013-06-20 13:15:00
8:35 AM,68.9,63.5,83,29.97,10.0,South,15.0,-,N/A,,Clear,170,2013-06-20 13:35:00
8:55 AM,70.7,63.9,79,29.98,10.0,South,16.1,21.9,N/A,,Clear,170,2013-06-20 13:55:00
9:15 AM,72.9,63.5,72,29.98,10.0,South,19.6,-,N/A,,Clear,170,2013-06-20 14:15:00
9:35 AM,73.9,63.7,70,29.97,10.0,South,23.0,26.5,N/A,,Clear,170,2013-06-20 14:35:00
9:55 AM,75.2,63.9,68,29.98,10.0,South,19.6,-,N/A,,Clear,180,2013-06-20 14:55:00
10:15 AM,76.3,63.7,65,29.98,10.0,South,25.3,28.8,N/A,,Clear,180,2013-06-20 15:15:00
10:35 AM,77.7,64.4,63,29.97,10.0,South,23.0,28.8,N/A,,Clear,190,2013-06-20 15:35:00
10:55 AM,77.9,64.4,63,29.98,10.0,South,23.0,29.9,N/A,,Clear,180,2013-06-20 15:55:00
11:15 AM,79.7,63.9,58,29.98,10.0,South,21.9,29.9,N/A,,Clear,170,2013-06-20 16:15:00
11:35 AM,80.4,64.2,58,29.98,10.0,South,21.9,29.9,N/A,,Clear,180,2013-06-20 16:35:00
11:55 AM,80.8,64.6,58,29.99,10.0,South,25.3,32.2,N/A,,Clear,190,2013-06-20 16:55:00
12:15 PM,82.2,64.8,55,29.98,10.0,South,25.3,28.8,N/A,,Clear,180,2013-06-20 17:15:00
12:35 PM,82.4,64.4,54,29.98,10.0,South,24.2,28.8,N/A,,Clear,180,2013-06-20 17:35:00
12:55 PM,82.8,64.0,53,29.98,10.0,South,26.5,32.2,N/A,,Clear,190,2013-06-20 17:55:00
1:15 PM,83.7,63.9,51,29.98,10.0,South,29.9,35.7,N/A,,Clear,190,2013-06-20 18:15:00
1:35 PM,84.2,63.9,50,29.98,10.0,South,25.3,34.5,N/A,,Clear,190,2013-06-20 18:35:00
1:55 PM,83.5,63.5,51,29.97,10.0,South,26.5,34.5,N/A,,Clear,190,2013-06-20 18:55:00
2:15 PM,86.5,64.0,47,29.97,10.0,South,24.2,31.1,N/A,,Clear,180,2013-06-20 19:15:00
2:35 PM,86.4,64.8,48,29.96,10.0,South,24.2,32.2,N/A,,Clear,170,2013-06-20 19:35:00
2:55 PM,87.6,64.6,46,29.96,10.0,South,25.3,34.5,N/A,,Clear,190,2013-06-20 19:55:00
3:15 PM,87.3,65.3,48,29.96,10.0,South,23.0,34.5,N/A,,Clear,190,2013-06-20 20:15:00
3:35 PM,86.9,65.7,49,29.95,10.0,South,24.2,33.4,N/A,,Clear,190,2013-06-20 20:35:00
3:55 PM,88.5,65.5,46,29.95,10.0,South,25.3,33.4,N/A,,Clear,190,2013-06-20 20:55:00
4:15 PM,88.9,65.3,45,29.93,10.0,South,26.5,34.5,N/A,,Clear,190,2013-06-20 21:15:00
4:35 PM,88.7,65.1,45,29.93,10.0,South,25.3,35.7,N/A,,Clear,170,2013-06-20 21:35:00
4:55 PM,88.9,65.3,45,29.92,10.0,South,28.8,35.7,N/A,,Clear,180,2013-06-20 21:55:00
5:15 PM,88.7,65.7,46,29.92,10.0,South,25.3,34.5,N/A,,Clear,180,2013-06-20 22:15:00
5:35 PM,88.7,65.3,46,29.91,10.0,South,28.8,35.7,N/A,,Clear,170,2013-06-20 22:35:00
5:55 PM,88.0,64.2,45,29.91,10.0,South,31.1,36.8,N/A,,Clear,180,2013-06-20 22:55:00
6:15 PM,87.6,63.5,44,29.91,10.0,South,26.5,36.8,N/A,,Clear,170,2013-06-20 23:15:00
6:35 PM,86.0,62.1,44,29.90,10.0,South,27.6,34.5,N/A,,Clear,170,2013-06-20 23:35:00
6:55 PM,85.1,60.3,43,29.91,10.0,South,27.6,35.7,N/A,,Clear,170,2013-06-20 23:55:00
7:15 PM,84.2,60.1,44,29.91,10.0,South,26.5,34.5,N/A,,Clear,170,2013-06-21 00:15:00
7:35 PM,83.5,59.7,44,29.92,10.0,South,28.8,36.8,N/A,,Clear,170,2013-06-21 00:35:00
7:55 PM,82.6,59.7,46,29.92,10.0,South,25.3,33.4,N/A,,Clear,170,2013-06-21 00:55:00
8:15 PM,81.9,60.3,48,29.93,10.0,South,26.5,32.2,N/A,,Clear,170,2013-06-21 01:15:00
8:35 PM,81.0,60.4,50,29.93,10.0,South,25.3,31.1,N/A,,Clear,170,2013-06-21 01:35:00
8:55 PM,80.6,59.7,49,29.94,10.0,South,25.3,35.7,N/A,,Clear,180,2013-06-21 01:55:00
9:15 PM,80.6,59.0,48,29.95,10.0,South,31.1,41.4,N/A,,Clear,180,2013-06-21 02:15:00
9:35 PM,79.7,59.0,49,29.94,10.0,South,27.6,38.0,N/A,,Clear,180,2013-06-21 02:35:00
9:55 PM,79.2,49.6,35,29.92,10.0,South,32.2,40.3,N/A,,Clear,170,2013-06-21 02:55:00
10:15 PM,77.0,48.7,37,29.91,10.0,South,26.5,35.7,N/A,,Clear,180,2013-06-21 03:15:00
10:35 PM,76.6,48.6,37,29.91,10.0,South,26.5,34.5,N/A,,Clear,180,2013-06-21 03:35:00
10:55 PM,79.0,46.4,32,29.89,10.0,South,34.5,44.9,N/A,,Clear,190,2013-06-21 03:55:00
11:15 PM,77.4,47.3,35,29.89,10.0,SSW,28.8,41.4,N/A,,Clear,200,2013-06-21 04:15:00
11:35 PM,79.9,45.7,30,29.89,10.0,South,34.5,46.0,N/A,,Clear,190,2013-06-21 04:35:00
11:55 PM,79.7,45.7,30,29.90,10.0,SSW,29.9,43.7,N/A,,Clear,200,2013-06-21 04:55:00